TimeMST,TemperatureF,Dew PointF,Humidity,Sea Level PressureIn,VisibilityMPH,Wind Direction,Wind SpeedMPH,Gust SpeedMPH,PrecipitationIn,Events,Conditions,WindDirDegrees,DateUTC
12:53 AM,1.4,-0.4,92,30.26,10.0,Calm,Calm,-,N/A,,Clear,0,2011-12-10 07:53:00
1:53 AM,1.9,-0.9,88,30.47,10.0,ESE,3.5,-,N/A,,Clear,110,2011-12-10 08:53:00
2:53 AM,6.1,3.0,87,30.45,10.0,SE,8.1,-,N/A,,Clear,140,2011-12-10 09:53:00
3:53 AM,1.9,-0.9,88,30.49,10.0,SSW,4.6,-,N/A,,Clear,210,2011-12-10 10:53:00
4:53 AM,5.0,1.4,85,30.26,10.0,SE,6.9,-,N/A,,Clear,130,2011-12-10 11:53:00
5:53 AM,8.1,3.0,80,30.52,10.0,East,5.8,-,N/A,,Clear,80,2011-12-10 12:53:00
6:53 AM,3.0,1.0,91,30.54,10.0,Calm,Calm,-,N/A,,Clear,0,2011-12-10 13:53:00
7:53 AM,7.0,3.0,84,30.57,10.0,SSE,8.1,-,N/A,,Clear,160,2011-12-10 14:53:00
8:53 AM,10.0,5.0,80,30.53,10.0,SSE,5.8,-,N/A,,Clear,150,2011-12-10 15:53:00
9:53 AM,14.0,8.1,77,30.51,10.0,SSE,8.1,-,N/A,,Clear,160,2011-12-10 16:53:00
10:53 AM,21.0,12.9,71,30.46,10.0,Calm,Calm,-,N/A,,Clear,0,2011-12-10 17:53:00
11:53 AM,14.0,10.0,84,30.46,10.0,Calm,Calm,-,N/A,,Clear,0,2011-12-10 18:53:00
12:53 PM,17.1,10.0,74,30.46,10.0,NNW,6.9,-,N/A,,Clear,330,2011-12-10 19:53:00
1:53 PM,18.0,10.9,74,30.44,10.0,NNW,3.5,-,N/A,,Clear,340,2011-12-10 20:53:00
2:53 PM,17.6,10.4,73,30.18,10.0,NW,4.6,-,N/A,,Clear,310,2011-12-10 21:53:00
3:53 PM,15.1,9.0,77,30.42,10.0,NW,8.1,-,N/A,,Clear,320,2011-12-10 22:53:00
4:53 PM,12.9,8.1,81,30.41,10.0,Calm,Calm,-,N/A,,Clear,0,2011-12-10 23:53:00
5:53 PM,3.0,1.9,95,30.43,10.0,SSW,4.6,-,N/A,,Clear,200,2011-12-11 00:53:00
6:53 PM,5.0,3.9,95,30.44,10.0,South,5.8,-,N/A,,Clear,170,2011-12-11 01:53:00
7:53 PM,6.1,1.9,83,30.40,7.0,Calm,Calm,-,N/A,,Clear,0,2011-12-11 02:53:00
8:53 PM,3.9,3.0,96,30.38,8.0,South,4.6,-,N/A,,Clear,190,2011-12-11 03:53:00
9:12 PM,3.2,1.4,92,30.10,1.8,South,4.6,-,N/A,,Clear,170,2011-12-11 04:12:00
9:19 PM,3.2,-0.4,85,30.10,0.5,South,3.5,-,N/A,Fog,Light Freezing Fog,180,2011-12-11 04:19:00
9:49 PM,8.6,5.0,85,30.10,1.0,South,5.8,-,N/A,,Clear,190,2011-12-11 04:49:00
9:53 PM,5.0,5.0,100,30.33,5.0,South,5.8,-,N/A,,Clear,190,2011-12-11 04:53:00
9:57 PM,1.4,1.4,100,30.09,1.8,South,5.8,-,N/A,,Clear,180,2011-12-11 04:57:00
10:04 PM,3.2,1.4,92,30.09,0.5,South,5.8,-,N/A,Fog,Light Freezing Fog,180,2011-12-11 05:04:00
10:41 PM,1.4,-0.4,92,30.08,1.0,SSW,4.6,-,N/A,,Clear,210,2011-12-11 05:41:00
10:45 PM,1.4,-0.4,92,30.08,3.0,South,8.1,-,N/A,,Clear,190,2011-12-11 05:45:00
10:53 PM,1.9,-0.0,91,30.30,10.0,SSW,4.6,-,N/A,,Clear,200,2011-12-11 05:53:00
11:51 PM,-4.0,-7.6,85,30.06,1.8,SSW,5.8,-,N/A,,Clear,200,2011-12-11 06:51:00
11:53 PM,-5.1,-8.0,87,30.35,1.0,SSW,5.8,-,N/A,,Clear,210,2011-12-11 06:53:00
11:55 PM,-5.8,-7.6,92,30.06,0.8,SSW,5.8,-,N/A,,Mist,210,2011-12-11 06:55:00